Location: Eschertshofen
(49.3064°N, 11.5756°E)
Time: 10:04:03
(UTC+00:00)

Daily predictions for brighter satellites

Satellite Brightness Start Highest point End
(mag) Time Altitude Azimuth Time Altitude Azimuth Time Altitude Azimuth
ATLAS 5 CENTAUR R/B 2.0 17:41:15 10° NW 17:43:47 79° SW 17:50:30 10° SE
ATLAS 3B R/B 4.2 17:42:32 10° NW 17:47:54 24° N 17:53:24 10° ENE
Iridium 4 Rocket 3.5 17:43:28 10° SSE 17:48:19 64° E 17:53:41 10° N
Sich 1 Rocket 4.5 17:45:56 10° SSE 17:49:46 28° E 17:53:40 10° NNE
SJ-6B 4.3 17:47:22 10° ESE 17:49:53 17° ENE 17:52:25 10° NNE
USA 238 DEB 4.4 17:43:54 10° NW 17:50:39 44° NNE 17:57:40 10° ESE
USA 238 4.4 17:44:00 10° NW 17:50:45 43° NNE 17:57:45 10° ESE
ATLAS CENTAUR R/B 3.4 17:50:13 10° W 17:53:31 26° NW 17:56:43 10° NNE
Cosmos 2263 Rocket 2.3 17:50:47 10° S 17:56:12 56° ESE 18:01:40 10° NE
Meteor 2-9 Rocket 4.3 17:53:31 10° S 17:59:16 62° E 18:04:59 10° NNE
USA 102 4.1 17:54:43 10° SE 18:00:55 73° ENE 18:04:08 10° NNW
SL-08 RB Rocket 4.3 17:57:11 10° SE 18:01:24 37° ENE 18:05:34 10° N
Cosmos 1844 Rocket 4.1 18:00:57 10° SE 18:04:06 16° E 18:07:16 10° ENE
CZ-2C R/B 3.2 17:59:01 10° SSE 18:04:15 89° ENE 18:09:51 10° NNW
SJ 16-02 2.0 18:00:31 10° SSW 18:04:51 61° WNW 18:09:13 10° NNE
Cosmos 990 Rocket 3.9 18:00:01 10° SSW 18:05:09 80° ESE 18:10:20 10° NNE
Cosmos 2227 4.2 18:00:04 10° SSW 18:05:46 71° ESE 18:11:28 10° NNE
Cosmos 1464 Rocket 4.4 18:00:49 10° SSE 18:06:21 37° E 18:11:57 10° NNE
ISS -1.9 18:04:31 10° S 18:06:39 16° SE 18:08:14 12° ESE
Abrixas rocket 2.1 18:06:09 10° WSW 18:08:55 52° SSE 18:11:14 14° E
Cosmos 1943 3.4 18:04:13 10° NNW 18:09:53 80° WSW 18:15:33 10° SSE
Okean 2 Rocket 3.9 18:06:06 10° SSE 18:09:59 29° E 18:13:53 10° NNE
SJ-11-01 4.3 18:05:52 10° SSE 18:10:36 86° ENE 18:15:20 10° NNW
NOSS 8 (F) 4.2 18:08:31 10° SW 18:11:43 83° NW 18:14:45 10° NE
Okean-O 4.1 18:08:45 10° SSW 18:12:55 40° W 18:17:08 10° NNW
Lacrosse 5 rocket 2.3 18:09:36 10° W 18:13:44 49° NNW 18:18:06 10° NE
Ariane Rocket 3.4 18:11:15 10° SE 18:16:03 45° ENE 18:20:53 10° N
Cosmos 1437 3.0 18:14:49 10° NNW 18:17:48 64° W 18:20:46 10° S
NOSS 3-2 (A) 4.2 18:12:04 10° NW 18:19:14 59° NE 18:26:32 13° ESE
Meteor 1-21 4.4 18:15:01 10° NNW 18:20:41 80° W 18:26:15 10° S
NOSS 2-2 (C) 3.8 18:17:44 10° S 18:20:54 32° ESE 18:24:22 10° ENE
USA 116 3.7 18:18:50 10° N 18:22:12 74° WNW 18:25:53 10° SSW
Cosmos 1300 Rocket 4.1 18:19:11 10° SSE 18:23:13 37° E 18:27:20 10° NNE
MetOp-A 4.5 18:22:47 10° SE 18:27:52 46° ENE 18:32:59 10° N
YAOGAN 1 4.2 18:24:30 10° SSW 18:28:32 38° W 18:32:36 10° NNW
HJ-1C 4.2 18:27:42 10° S 18:30:54 50° W 18:34:08 10° NNW
Cosmos 1898 Rocket 3.8 18:27:09 10° SSW 18:32:18 70° WNW 18:37:30 10° NNE
Cosmos 1867 3.6 18:28:03 10° NW 18:33:34 85° SW 18:38:36 12° SE
CSL-04 Rocket 4.4 18:28:28 10° S 18:33:47 58° WSW 18:39:14 10° NNW
Cosmos 1891 Rocket 4.4 18:27:56 10° S 18:33:58 62° E 18:39:57 10° NNE
Cosmos 1536 Rocket 3.9 18:33:37 10° N 18:37:55 46° ENE 18:41:16 16° SE
USA 234 3.8 18:35:37 10° ENE 18:41:27 33° SE 18:47:15 10° SSW
Cosmos 1626 4.0 18:41:17 10° NNE 18:43:18 15° ENE 18:43:18 15° ENE
Meteor 2-5 Rocket 4.5 18:40:20 10° N 18:45:24 33° ENE 18:48:05 22° ESE
DMSP B5D2-2 4.3 18:41:04 10° NNE 18:46:10 46° E 18:51:14 10° S
CREW DRAGON DEMO-1 DEB 3.3 18:43:43 10° WNW 18:46:42 52° N 18:47:59 28° ENE
CZ-4 R/B 4.3 18:47:51 10° SW 18:50:55 19° W 18:54:01 10° NW
Cosmos 2151 Rocket 3.7 18:46:45 10° S 18:51:04 53° E 18:55:28 10° NNE
Cosmos 372 Rocket 3.9 18:46:12 10° S 18:51:24 67° ESE 18:56:36 10° NNE
USA 186 1.8 18:48:47 14° S 18:51:25 74° W 18:54:40 10° NNW
Cosmos 1025 Rocket 2.9 18:47:34 10° N 18:51:58 83° E 18:56:09 11° SSE
NOSS 3-2 (C) 4.2 18:46:09 10° NW 18:53:21 61° NE 18:58:44 23° ESE
Cosmos 2150 Rocket 4.3 18:48:45 10° S 18:53:52 46° ESE 18:59:03 10° NNE
Nadezhda 4 Rocket 3.9 18:52:33 10° N 18:58:43 75° E 19:04:42 11° SSE
Cosmos 1805 4.3 19:00:43 28° ENE 19:00:43 28° ENE 19:03:30 10° NNE
OBJECT-B 0.9 19:01:23 48° ESE 19:01:53 54° ENE 19:05:04 10° N
Cosmos 1937 Rocket 4.3 18:56:54 10° SW 19:02:03 55° WNW 19:07:11 10° NNE
Cosmos 2082 Rocket 4.1 18:58:51 10° N 19:02:20 16° NE 19:04:43 13° ENE
Cosmos 2034 Rocket 4.0 18:56:48 10° S 19:03:07 70° E 19:09:27 10° NNE
MOS 1 Rocket 3.9 18:58:46 10° N 19:03:12 54° WNW 19:07:25 10° SSW
Cosmos 1125 Rocket 3.9 18:59:58 10° S 19:04:51 39° ESE 19:09:46 10° NE
FREGAT/IRIS 2.6 19:05:32 48° SSW 19:06:02 62° W 19:08:37 10° NNW
Exosat Rocket 4.0 19:01:02 10° S 19:06:11 38° ESE 19:10:48 10° NE
Cosmos 1674 2.7 19:04:56 10° N 19:08:46 61° ENE 19:09:42 45° SE
COSMOS 2406 4.3 19:05:29 10° NNW 19:10:28 30° NE 19:12:17 25° ENE
Meteor 1-24 Rocket 4.2 19:07:30 10° N 19:12:39 40° ENE 19:14:11 34° ESE
In-Cosmos 22 4.5 19:10:33 10° NNW 19:15:47 63° W 19:21:03 10° S
SL-14 R/B 4.4 19:13:18 10° N 19:16:10 28° NE 19:16:10 28° NE
NOSS 2-2 (E) 3.6 19:14:37 10° SW 19:18:09 61° NW 19:22:16 10° NE
Resurs 01 Rocket 1.8 19:19:16 46° ESE 19:20:11 55° ENE 19:24:33 10° N
H-2A R/B 4.0 19:16:48 10° SSW 19:20:58 27° W 19:25:15 10° NW
ATLAS 2AS CENTAUR R/B 3.9 19:16:24 10° SSE 19:24:48 27° E 19:29:31 10° NE
CZ-2C R/B 2.8 19:18:09 10° NNE 19:23:42 81° WNW 19:29:17 10° SSW
SJ-6B 3.6 19:21:47 18° SSW 19:24:14 45° W 19:27:52 10° NNW
Lacrosse 4 Rocket 3.6 19:23:22 10° N 19:25:23 13° NNE 19:25:54 13° NE
KORONAS-FOTON 3.7 19:22:27 10° N 19:26:25 88° WSW 19:27:14 55° S
NOSS 2-2 (D) 3.5 19:23:04 10° SW 19:26:35 63° NW 19:30:38 10° NE
Cosmos 1048 Rocket 4.3 19:26:09 10° NNW 19:31:25 67° WSW 19:34:10 29° S
Cosmos 1766 4.1 19:33:40 36° NE 19:33:40 36° NE 19:36:17 10° NNE
SPOT 1/Viking Rocket 4.2 19:33:46 36° ENE 19:34:04 36° ENE 19:38:46 10° N
CENTAUR R/B 3.1 19:26:18 10° NW 19:34:17 84° NE 19:38:32 35° SE
Cosmos 1844 3.6 19:29:36 10° SSW 19:35:12 61° ESE 19:40:47 10° NE
IGS 5A 4.3 19:37:09 37° NE 19:37:09 37° NE 19:40:22 10° N
Cosmos 1634 Rocket 4.0 19:34:24 36° SSE 19:36:45 58° E 19:42:49 10° NNE
ARIANE 5 R/B 2.9 19:37:43 48° ENE 19:37:43 48° ENE 19:41:40 10° N
SWAS 4.3 19:34:20 10° NNW 19:38:40 85° WSW 19:39:04 72° SSE
ATLAS 3B R/B 3.3 19:33:50 10° NW 19:40:19 45° NE 19:42:49 33° E
Cosmos 2263 Rocket 4.0 19:35:33 10° WSW 19:40:27 31° NW 19:45:25 10° NNE
Cosmos 1269 Rocket 4.1 19:35:26 10° NNW 19:40:43 61° ENE 19:41:30 54° ESE
Cosmos 2285 Rocket 3.9 19:35:15 10° S 19:41:28 67° ESE 19:47:47 10° NNE
USA 238 DEB 4.0 19:34:56 10° NW 19:42:04 68° SW 19:45:38 33° SSE
MetOp-B 4.1 19:41:10 53° ESE 19:42:08 63° ENE 19:47:26 10° N
USA 238 4.0 19:35:02 10° NW 19:42:11 69° SW 19:45:43 33° SSE
ISS -2.0 19:39:38 10° WSW 19:41:15 26° SW 19:41:15 26° SW
Abrixas rocket 4.1 19:41:16 10° W 19:42:31 23° W 19:42:31 23° W
Cosmos 1844 Rocket 2.5 19:41:35 10° SSW 19:47:09 89° ESE 19:52:48 10° NNE
Spot 2 Rocket 3.7 19:48:07 51° ENE 19:48:10 51° ENE 19:53:03 10° N
Cosmos 1627 Rocket 4.5 19:44:33 10° N 19:51:00 90° ESE 19:53:34 40° S
Okean 1 Rocket 3.1 19:51:22 60° SSW 19:52:08 80° W 19:56:40 10° N
Lacrosse 5 rocket 3.1 19:49:48 10° WNW 19:53:42 30° N 19:55:13 24° NNE
Cosmos 1092 Rocket 4.2 19:50:58 10° NNW 19:57:06 68° W 20:00:14 30° SSW
Cosmos 2026 Rocket 4.1 19:58:17 10° NNW 20:04:40 78° W 20:06:55 43° S
CZ-2C R/B 3.9 20:00:33 10° N 20:04:58 69° WNW 20:05:30 61° WSW
Meteor 2-19 Rocket 4.4 19:59:18 10° N 20:05:24 60° ENE 20:05:39 59° E
SPOT 3 Rocket 4.3 20:03:38 32° SSW 20:05:37 48° W 20:10:36 10° NNW
Cosmos 1833 Rocket 3.0 20:02:13 10° NNW 20:07:45 51° NE 20:07:46 51° NE
Cosmos 2251 Rocket 4.5 20:08:23 10° NNW 20:12:49 36° NE 20:12:49 36° NE
Terra 3.2 20:19:13 28° NNE 20:19:13 28° NNE 20:22:03 10° N
Cosmos 1626 3.8 20:15:30 10° NNW 20:17:51 33° NW 20:17:51 33° NW
Cosmos 2279 Rocket 3.8 20:20:51 76° ESE 20:21:02 77° E 20:27:19 10° NNE
Cosmos 1892 Rocket 4.3 20:16:54 10° NNW 20:20:06 48° NNW 20:20:06 48° NNW
Cosmos 2142 Rocket 4.4 20:21:19 68° S 20:22:14 89° ESE 20:28:31 10° N
USA 234 3.1 20:19:22 15° ENE 20:24:58 90° NNW 20:31:33 10° WSW
OBJECT-B 4.1 20:34:35 10° W 20:34:35 10° W 20:35:11 10° WNW
SPOT 5 3.6 20:40:09 51° N 20:40:09 51° N 20:44:12 10° N
Cosmos 2082 Rocket 2.8 20:42:04 10° NNW 20:46:33 50° NNE 20:46:33 50° NNE
COSMOS 2406 3.7 20:49:34 10° NW 20:54:20 54° WNW 20:54:20 54° WNW
ERS-1 Rocket 3.9 20:57:24 45° NNW 20:57:24 45° NNW 21:00:57 10° NNW
Resurs 01 Rocket 3.9 20:56:51 19° W 20:57:00 19° W 21:00:11 10° NW
Cosmos 2098 Rocket 4.2 20:56:45 10° NNW 21:03:50 70° W 21:03:50 70° W
Lacrosse 4 Rocket 3.8 21:00:50 10° NNW 21:02:11 20° NNW 21:02:11 20° NNW
Cosmos 2266 Rocket 4.2 21:00:33 10° NNW 21:05:34 62° NNW 21:05:34 62° NNW
Cosmos 1655 Rocket 4.4 21:06:48 10° NNW 21:12:30 57° WNW 21:12:30 57° WNW
ATLAS 2AS CENTAUR R/B 2.9 21:11:59 66° SW 21:13:19 84° NW 21:21:13 10° NE
Cosmos 2278 Rocket 3.9 21:22:33 25° NNE 21:22:33 25° NNE 21:24:51 10° NNE
CENTAUR R/B 4.2 21:17:36 10° NW 21:24:36 32° WSW 21:25:44 31° SW
ATLAS 3B R/B 3.2 21:24:34 10° NW 21:30:03 52° W 21:30:03 52° W
Lacrosse 5 rocket 4.1 21:29:25 10° NW 21:30:50 19° NW 21:30:50 19° NW
Terra 4.2 21:58:06 20° NW 21:58:06 20° NW 21:59:48 10° NNW
USA 234 3.9 22:01:27 10° ENE 22:07:43 51° NNW 22:13:59 10° W
Cosmos 2082 Rocket 4.5 22:26:47 10° NW 22:28:23 17° WNW 22:28:23 17° WNW
Cosmos 1943 Rocket 4.5 22:35:46 17° NE 22:35:46 17° NE 22:36:56 10° NE
Cosmos 2369 Rocket 4.4 22:59:19 19° NE 22:59:19 19° NE 23:00:50 10° NE
CZ-4C R/B 4.1 23:02:00 26° NNE 23:02:00 26° NNE 23:04:55 10° NE
Cosmos 2278 Rocket 4.3 23:04:22 21° NW 23:04:22 21° NW 23:08:20 10° N
ATLAS 2AS CENTAUR R/B 4.2 22:59:09 14° W 23:05:22 37° NNW 23:12:26 10° NE
Cosmos 2227 Rocket 4.3 23:38:29 10° N 23:42:45 21° NE 23:43:30 21° NE
USA 234 4.0 23:43:55 10° E 23:50:06 48° N 23:56:19 10° WNW
